Regional Weather Roundup
Issued by NWS

Home | Current Version | Previous Version | Graphics & Text | Print | Product List | Glossary On
Versions: 1 2 3 4 5 6 7 8 9 10 11 12 13 14 15 16 17 18 19 20 21 22 23 24 25 26 27 28 29 30 31 32 33 34 35 36 37 38 39 40 41 42 43 44 45 46 47 48
000
ASUS45 KSLC 302010
RWRUT

UTAH REGIONAL WEATHER ROUNDUP
NATIONAL WEATHER SERVICE SALT LAKE CITY UT
200 PM MDT SAT MAY 30 2015

UTZ001>011-023>025-302100-

NORTHERN UTAH

CITY           SKY/WX    TMP DP  RH WIND       PRES   REMARKS
BRIGHAM CITY   SUNNY     76  45  32 SW7       30.09F
HILL AFB       SUNNY     78  38  23 S13       30.10F
LOGAN          SUNNY     74  52  46 W3        30.09F
OGDEN          SUNNY     79  44  28 S8        30.08F
PROVO AIRPORT  PTSUNNY   75  46  35 VRB5      30.12F
SALT LAKE CITY PTSUNNY   79  42  26 S13       30.07F
VERNAL         SUNNY     73  40  30 S5        30.18F
WENDOVER       SUNNY     75  48  38 SE7       30.07F
HEBER CITY     MOSUNNY   73  36  25 SW16G22   30.15F
WEST JORDAN    SUNNY     75  46  35 SE10G17   30.11F

$$

UTZ012>022-026-027-302100-

SOUTHERN/CENTRAL UTAH

CITY           SKY/WX    TMP DP  RH WIND       PRES   REMARKS
BLANDING       MOSUNNY   77  31  18 S7        30.31F
BRYCE CANYON   LGT RAIN  67  41  38 SE10      30.34S
CEDAR CITY     SUNNY     82  34  17 SW14      30.17F
DELTA          CLOUDY    83  35  18 S13       30.12F
HANKSVILLE     SUNNY     82  36  18 CALM      30.15F
MILFORD        MOSUNNY   84  36  18 SW16G25   30.13F
MOAB/CYNLANDS  SUNNY     83  36  18 CALM      30.13F
PRICE          MOSUNNY   75  38  26 VRB6      30.22F
ST GEORGE      PTCLDY    91  41  17 W5        30.01F
KANAB          SUNNY     84  34  16 SW5       30.18F

$$

REGIONAL REPORTS     COLORADO/ARIZONA

CITY           SKY/WX    TMP DP  RH WIND       PRES   REMARKS
CRAIG, CO      SUNNY     72  38  29 W10       30.24F
GRAND JUNCTION MOSUNNY   77  36  22 CALM      30.18F
RIFLE          MOSUNNY   74  33  22 CALM      30.21F
MONTROSE       SUNNY     76  30  18 N10       30.25F
CORTEZ         SUNNY     79  34  19 SW16G22   30.24F
PAGE, AZ       SUNNY     85  39  19 MISG      30.12F
GRAND CANYON   MOSUNNY   78  26  14 CALM      30.28F
KINGMAN        SUNNY     94  17   6 SW20G30   30.06F
FLAGSTAFF      PTSUNNY   73  32  22 SW7       30.31F

$$

REGIONAL REPORTS    NEVADA/IDAHO/WYOMING

CITY           SKY/WX    TMP DP  RH WIND       PRES   REMARKS
LAS VEGAS, NV  PTSUNNY   98  21   6 VRB3G20   29.91F HX  91
ELY            MOSUNNY   79  28  15 S15       30.18F
ELKO           PTSUNNY   81  42  25 NW8       30.06F
POCATELLO, ID  MOSUNNY   81  46  29 SE14G22   30.04F
BURLEY         SUNNY     83  47  28 S12       29.98F
EVANSTON, WY   MOSUNNY   70  42  36 W17G23    30.23F
ROCK SPRINGS   MOSUNNY   70  35  27 MISG      30.22F
KEMMERER       MOSUNNY   70  37  30 SW12G21   30.25F

$$



USA.gov is the U.S. government's official web portal to all federal, state and local government web resources and services.